Location: Mason Neck State Park
(38.6428°N, 77.1981°W)
Time: 10:45:57
(UTC-04:00)

Cosmos 2278 Rocket - Visible Passes

Search period start: 23 April 2014 00:00
Search period end: 03 May 2014 00:00
Orbit: 842 x 845 km, 71.0° (Epoch: 22 April)

Date Brightness Start Highest point End Pass type
(mag) Time Alt. Az. Time Alt. Az. Time Alt. Az.
23 Apr 3.9 00:11:21 27° NNE 00:11:21 27° NNE 00:13:52 10° NNE visible
23 Apr 4.7 01:53:10 12° NW 01:53:16 12° NW 01:55:12 10° NNW visible
23 Apr 3.7 23:56:40 30° NNE 23:56:40 30° NNE 23:59:26 10° NNE visible
24 Apr 4.7 01:38:28 12° NW 01:38:47 12° NW 01:40:58 10° NNW visible
24 Apr 3.5 23:41:53 34° NNE 23:41:53 34° NNE 23:44:59 10° NNE visible
25 Apr 4.7 01:23:41 13° NW 01:24:17 13° NW 01:26:42 10° NNW visible
25 Apr 3.2 23:27:01 40° NNE 23:27:01 40° NNE 23:30:32 10° NNE visible
26 Apr 4.7 01:08:49 13° WNW 01:09:48 13° NW 01:12:25 10° NNW visible
26 Apr 2.8 23:12:02 49° NNE 23:12:02 49° NNE 23:16:06 10° NNE visible
27 Apr 4.7 00:53:49 13° WNW 00:55:19 14° NW 00:58:07 10° NNW visible
27 Apr 2.4 22:56:52 65° NNE 22:56:52 65° NNE 23:01:39 10° NNE visible
28 Apr 4.7 00:38:38 12° WNW 00:40:50 14° NW 00:43:48 10° NNW visible
28 Apr 2.0 22:41:29 84° ESE 22:41:31 84° ESE 22:47:12 10° NNE visible
29 Apr 4.7 00:23:14 10° W 00:26:20 15° NW 00:29:28 10° NNW visible
29 Apr 2.0 22:25:44 54° S 22:27:05 80° ESE 22:32:45 10° NNE visible
30 Apr 4.7 00:08:36 10° W 00:11:51 15° NW 00:15:08 10° NNW visible
30 Apr 2.0 22:09:22 26° SSW 22:12:38 77° ESE 22:18:18 10° NNE visible
30 Apr 4.7 23:53:59 10° W 23:57:22 16° NW 00:00:47 10° NNW visible
01 May 2.1 21:52:35 10° SSW 21:58:12 74° ESE 22:03:50 10° NNE visible
01 May 4.8 23:39:22 10° W 23:42:53 17° NW 23:46:26 10° NNW visible
02 May 2.1 21:38:09 10° SSW 21:43:45 71° ESE 21:49:23 10° NNE visible
02 May 4.8 23:24:45 10° W 23:28:24 17° NW 23:32:04 10° NNW visible
